Tracking 29040 objects as of 16-Jun-2024
HD Live streaming from Space Station
objects crossing your sky now

SL-14 DEB

Track SL-14 DEB now!
10-day predictions


NORAD ID: 26008
Int'l Code: 1991-068T
Perigee: 1,346.8 km
Apogee: 1,487.6 km
Inclination: 82.6 °
Period: 114.0 minutes
Semi major axis: 7788 km
RCS: 0.1445 m2 (medium)
Launch date: September 28, 1991
Source: Commonwealth of Independent States (former USSR) (CIS)
Launch site: PLESETSK MISSILE AND SPACE COMPLEX (PKMTR)

Note: This is SATELLITE DEBRIS
Your satellite tracking list
Your tracking list is empty




NASA's NSSDC Master Catalog

Two Line Element Set (TLE):
1 26008U 91068T   24168.38436500  .00000037  00000-0  14700-3 0  9995
2 26008  82.6275 133.0218 0090375 298.8889 193.0962 12.63123232138010
Source of the keplerian elements: AFSPC